Date String (YYYY-MM-DD hh:mm:ss) UTC,Instrument flags,absolute air pressure of the measurement (hPa),sample flow rate (lpm),inlet stack bypass flow (lpm),air temperature of the measurement (°C),ambient temperature measured by the external sensor (°C),aerosol sample conditioner tube jacket temperature (°C),OPC LED temperature (°C),internal box temperature (°C),relative humidity of the measurement (%),span deviation,mass concentration of particles derived from Lorenz-Mie calculation of OPC scattering (μg/m³),mass concentration of particles derived from Lorenz-Mie calculation of OPC scattering (μg/m³),mass concentration of particles derived from Lorenz-Mie calculation of OPC scattering (μg/m³)
DateTimeUTC,F1_M11,P_M11,Q1_M11,Q2_M11,T1_M11,T2_M11,T3_M11,T4_M11,T5_M11,U1_M11,ZSPAN_M11,X0_M11,X2_M11,X1_M11
2023-12-02 16:00:00,SystemResetWarning,0821.6,5.00,000.00,018.7,017.5,000.0,027.3,020.0,10.9,0000.0,0001.80,0000.88,0000.71
2023-12-02 16:01:00,SystemResetWarning,0821.8,5.00,000.00,018.7,017.6,000.0,027.3,020.0,11.2,0000.0,0001.71,0000.87,0000.72
2023-12-02 16:02:00,SystemResetWarning,0822.0,4.99,000.00,018.7,017.6,000.0,027.3,020.0,11.2,0000.0,0001.72,0000.88,0000.73
2023-12-02 16:03:00,SystemResetWarning,0822.0,5.00,000.00,018.7,017.6,000.0,027.3,020.0,11.2,0000.0,0001.79,0000.91,0000.73
2023-12-02 16:04:00,SystemResetWarning,0822.0,5.00,000.00,018.7,017.6,000.0,027.3,020.0,11.3,0000.0,0001.88,0000.95,0000.74
2023-12-02 16:05:00,SystemResetWarning,0822.0,5.00,000.00,018.7,017.5,000.0,027.3,020.0,11.4,0000.0,0001.98,0000.96,0000.74
2023-12-02 16:06:00,SystemResetWarning,0821.9,5.00,000.00,018.7,017.5,000.0,027.3,020.0,11.7,0000.0,0001.99,0000.95,0000.73
2023-12-02 16:07:00,SystemResetWarning,0821.9,5.00,000.00,018.7,017.6,000.0,027.3,020.1,11.6,0000.0,0001.99,0000.95,0000.73
2023-12-02 16:08:00,SystemResetWarning,0821.9,5.01,000.00,018.8,018.5,000.0,027.3,020.7,11.2,0000.0,0001.97,0000.93,0000.72
2023-12-02 16:09:00,SystemResetWarning,0821.7,4.99,000.00,019.0,019.1,000.0,027.3,020.9,11.0,0000.0,0001.81,0000.94,0000.72
2023-12-02 16:10:00,SystemResetWarning,0821.9,4.98,000.00,019.0,019.0,000.0,027.3,020.6,11.0,0000.0,0001.82,0000.96,0000.74
2023-12-02 16:11:00,SystemResetWarning,0821.7,5.02,000.00,019.0,018.8,000.0,027.3,020.2,10.7,0000.0,0001.72,0000.99,0000.75
2023-12-02 16:12:00,SystemResetWarning,0822.0,5.00,000.00,019.0,018.6,000.0,027.3,020.1,10.9,0000.0,0001.77,0001.01,0000.75
2023-12-02 16:13:00,SystemResetWarning,0821.9,5.00,000.00,018.9,018.4,000.0,027.2,020.0,11.0,0000.0,0001.82,0001.00,0000.74
2023-12-02 16:14:00,SystemResetWarning,0821.9,4.99,000.00,018.9,018.2,000.0,027.3,020.0,11.1,0000.0,0001.76,0000.98,0000.74
2023-12-02 16:15:00,SystemResetWarning,0821.9,5.00,000.00,018.9,018.0,000.0,027.3,020.0,11.2,0000.0,0001.70,0000.97,0000.76
2023-12-02 16:16:00,SystemResetWarning,0821.9,5.00,000.00,018.8,017.9,000.0,027.3,020.0,11.0,0000.0,0001.61,0000.95,0000.76
2023-12-02 16:17:00,SystemResetWarning,0821.6,5.00,000.00,018.8,017.8,000.0,027.3,020.0,11.1,0000.0,0001.51,0000.95,0000.76
2023-12-02 16:18:00,SystemResetWarning,0821.6,5.00,000.00,018.8,017.8,000.0,027.3,020.0,10.9,0000.0,0001.54,0000.96,0000.75
2023-12-02 16:19:00,SystemResetWarning,0821.9,5.00,000.00,018.8,017.7,000.0,027.3,020.0,10.6,0000.0,0001.49,0000.94,0000.75
2023-12-02 16:20:00,SystemResetWarning,0821.8,5.00,000.00,018.8,017.7,000.0,027.3,020.0,10.7,0000.0,0001.46,0000.95,0000.76
2023-12-02 16:21:00,SystemResetWarning,0821.6,5.01,000.00,018.8,017.6,000.0,027.3,020.0,10.7,0000.0,0001.30,0000.91,0000.74
2023-12-02 16:22:00,SystemResetWarning,0821.6,5.00,000.00,018.7,017.6,000.0,027.3,020.0,11.0,0000.0,0001.30,0000.91,0000.73
2023-12-02 16:23:00,SystemResetWarning,0821.6,5.00,000.00,018.7,017.5,000.0,027.3,020.0,11.2,0000.0,0001.32,0000.92,0000.73
2023-12-02 16:24:00,SystemResetWarning,0821.6,4.99,000.00,018.7,017.5,000.0,027.3,020.0,11.0,0000.0,0001.40,0000.94,0000.73
2023-12-02 16:25:00,SystemResetWarning,0821.6,4.99,000.00,018.7,017.5,000.0,027.3,020.0,10.8,0000.0,0001.69,0000.95,0000.72
2023-12-02 16:26:00,SystemResetWarning,0821.7,4.99,000.00,018.7,017.5,000.0,027.3,020.0,10.8,0000.0,0001.75,0000.95,0000.69
2023-12-02 16:27:00,SystemResetWarning,0821.7,5.00,000.00,018.7,017.4,000.0,027.3,020.0,10.8,0000.0,0002.04,0000.93,0000.68
2023-12-02 16:28:00,SystemResetWarning,0821.7,5.00,000.00,018.7,017.4,000.0,027.3,020.0,10.7,0000.0,0002.28,0000.94,0000.67
2023-12-02 16:29:00,SystemResetWarning,0821.6,5.00,000.00,018.7,017.4,000.0,027.3,020.0,10.8,0000.0,0002.23,0000.92,0000.67
2023-12-02 16:30:00,SystemResetWarning,0821.7,5.01,000.00,018.7,017.4,000.0,027.3,020.0,10.7,0000.0,0002.22,0000.90,0000.65
2023-12-02 16:31:00,SystemResetWarning,0821.7,5.01,000.00,018.7,017.4,000.0,027.3,020.0,11.2,0000.0,0002.25,0000.89,0000.64
2023-12-02 16:32:00,SystemResetWarning,0821.7,4.99,000.00,018.7,017.3,000.0,027.3,020.0,11.1,0000.0,0002.89,0000.86,0000.63
2023-12-02 16:33:00,SystemResetWarning,0821.7,4.99,000.00,018.7,017.4,000.0,027.3,020.1,11.1,0000.0,0003.04,0000.85,0000.62
2023-12-02 16:34:00,SystemResetWarning,0821.8,5.02,000.00,018.8,018.3,000.0,027.3,020.7,11.1,0000.0,0004.25,0000.82,0000.60
2023-12-02 16:35:00,SystemResetWarning,0821.9,4.99,000.00,019.0,019.2,000.0,027.3,020.9,10.9,0000.0,0005.18,0000.84,0000.59
2023-12-02 16:36:00,SystemResetWarning,0821.9,4.99,000.00,019.0,019.1,000.0,027.3,020.6,11.0,0000.0,0006.49,0000.85,0000.57
2023-12-02 16:37:00,SystemResetWarning,0821.9,5.01,000.00,019.0,018.9,000.0,027.3,020.3,10.9,0000.0,0006.52,0000.82,0000.58
2023-12-02 16:38:00,SystemResetWarning,0821.9,5.00,000.00,019.0,018.6,000.0,027.3,020.1,11.1,0000.0,0006.41,0000.84,0000.58
2023-12-02 16:39:00,SystemResetWarning,0821.9,5.00,000.00,018.9,018.4,000.0,027.3,020.0,11.2,0000.0,0006.14,0000.83,0000.57
2023-12-02 16:40:00,SystemResetWarning,0821.9,5.00,000.00,018.9,018.2,000.0,027.3,020.0,11.2,0000.0,0006.08,0000.82,0000.57
2023-12-02 16:41:00,SystemResetWarning,0822.0,4.99,000.00,018.9,018.1,000.0,027.3,020.0,11.1,0000.0,0006.09,0000.83,0000.57
2023-12-02 16:42:00,SystemResetWarning,0821.9,4.99,000.00,018.8,017.9,000.0,027.3,020.0,11.1,0000.0,0006.06,0000.82,0000.56
2023-12-02 16:43:00,SystemResetWarning,0822.0,5.01,000.00,018.8,017.9,000.0,027.3,020.0,11.1,0000.0,0005.57,0000.82,0000.55
2023-12-02 16:44:00,SystemResetWarning,0822.1,5.01,000.00,018.8,017.8,000.0,027.3,020.0,11.7,0000.0,0005.50,0000.83,0000.55
2023-12-02 16:45:00,SystemResetWarning,0822.1,5.01,000.00,018.8,017.7,000.0,027.3,020.0,11.8,0000.0,0005.39,0000.82,0000.54
2023-12-02 16:46:00,SystemResetWarning,0822.1,4.99,000.00,018.8,017.7,000.0,027.3,020.0,11.9,0000.0,0004.41,0000.77,0000.53
2023-12-02 16:47:00,SystemResetWarning,0822.1,5.00,000.00,018.8,017.7,000.0,027.3,020.0,11.8,0000.0,0002.87,0000.73,0000.52
2023-12-02 16:48:00,SystemResetWarning,0822.2,4.99,000.00,018.8,017.6,000.0,027.3,020.0,11.9,0000.0,0002.60,0000.71,0000.50
2023-12-02 16:49:00,SystemResetWarning,0822.2,5.00,000.00,018.7,017.6,000.0,027.3,020.0,12.1,0000.0,0002.55,0000.68,0000.49
2023-12-02 16:50:00,SystemResetWarning,0822.2,5.00,000.00,018.7,017.6,000.0,027.3,020.0,11.9,0000.0,0002.79,0000.69,0000.49
2023-12-02 16:51:00,SystemResetWarning,0822.4,5.01,000.00,018.7,017.6,000.0,027.3,020.0,11.5,0000.0,0002.68,0000.67,0000.48
2023-12-02 16:52:00,SystemResetWarning,0822.4,5.00,000.00,018.7,017.6,000.0,027.3,020.0,11.9,0000.0,0002.66,0000.67,0000.48
2023-12-02 16:53:00,SystemResetWarning,0822.4,5.00,000.00,018.7,017.5,000.0,027.3,020.0,11.6,0000.0,0002.69,0000.66,0000.47
2023-12-02 16:54:00,SystemResetWarning,0822.4,5.00,000.00,018.7,017.5,000.0,027.3,020.0,11.7,0000.0,0002.69,0000.65,0000.48
2023-12-02 16:55:00,SystemResetWarning,0822.4,5.00,000.00,018.7,017.5,000.0,027.3,020.0,11.5,0000.0,0002.56,0000.66,0000.49
2023-12-02 16:56:00,SystemResetWarning,0822.4,5.00,000.00,018.7,017.5,000.0,027.3,020.0,11.4,0000.0,0001.43,0000.64,0000.49
2023-12-02 16:57:00,SystemResetWarning,0822.4,5.00,000.00,018.7,017.5,000.0,027.3,020.0,11.6,0000.0,0001.24,0000.63,0000.49
2023-12-02 16:58:00,SystemResetWarning,0822.6,4.99,000.00,018.7,017.5,000.0,027.3,020.0,11.7,0000.0,0001.20,0000.62,0000.49
2023-12-02 16:59:00,SystemResetWarning,0822.7,4.99,000.00,018.7,017.5,000.0,027.3,020.0,12.3,0000.0,0001.25,0000.64,0000.49
